Showing default

KENT RIDGE 1, 41167

Orbit data source: Space-Track

KENT RIDGE 1, 41167 is a payload satellite owned by NUS (SG) in LEO that was launched on Wed, 16 Dec 2015 UTC via a PSLV launch vehicle from the Sirharikota (SRI). Payload-class satellites include a variety of spacecraft equipped with specific instruments for various scientific and technological missions. These include communications satellites like Starlink; space stations such as the ISS; scientific satellites like the Hubble; Earth observation satellites from companies like Planet Labs, Umbra, and HawkEye 360; GPS; miniature CubeSats for education and research; and military/defense satellites.

Not visible in the next 10 days
Identifier
41167, 2015-077B
Orbit
LEO
Country
Flag of SGSG / SING
Related business
Manufacturer
Berlin Space T.
Mission
Operational Amateur Imaging
Bus & Motor
LEOS-50, Unknown motor
Mass
78 kg wet, 78 kg dry
Launch date (UTC)
2015-12-16 (10 years ago)
Launch vehicle
PSLV
Launch site
Sirharikota (SRI)
Object type
Payload
Rocket body
Debris
Shape & HBR
Box, 0.2 m
Radar Cross Section
0.100 m², Medium (>0.1 m² and < 1m²)

Expand to show TLE details & history
Last TLE update: 20 hours ago

TLE from 20 hours ago
0 KENT RIDGE 1
1 41167U 15077B   26093.36723006  .00007046  00000-0  26134-3 0  9992
2 41167  14.9794 102.2151 0008478 263.3691  96.5665 15.22664917569677
Epoch: 2026-04-03T08:48Z
TLE epoch observation values (Epoch: 2026-04-03T08:48:48.677Z)
Latitude
-0.00003°
Longitude
138.30981°
Altitude
495.715 km
Speed
7.62 km/s
True Right ascension
06h 48m 51s
True Declination
0° 00' 00"
Sunlit
Object was in daylight at epoch
Visualization orbit readout
Latitude
Unknown
Longitude
Unknown
Altitude
Unknown
Speed
Unknown
Apparent Right ascension
Unknown
Apparent Declination
Unknown
Sunlit
N/A
Visualization observer readout
Local Sidereal Time
10:48:38
Azimuth
Unknown
Elevation
Unknown
Doppler factor
Unknown
Orbital elements
Apogee altitude
509.412 km
Perigee altitude
497.743 km
Semi-major axis
6,881.714 km
Eccentricity
0.00085
Inclination
14.9794°
RAAN
102.2151°
Arg. of periapsis
263.3691°
True anomaly
96.663°
Mean anomaly
96.5665°
Eccentric anomaly
96.61475°
Mean motion
3.80188 °/min
Orbital period
94.69 mins
BSTAR
0.00026134
Loading maneuver chart data...
Computing Atmospheric mass density...
Loading historical data...
Loading historical data...
Loading historical data...
Loading historical data...
Loading historical data...
Loading historical data...
Loading historical data...

Documentation

Showing up to 5 results
|